[[{"header":{"parameterUnit":"m.s-1","parameterCategory":1,"la1":30.2991,"la2":30.254,"lo1":-89.0895,"lo2":-89.0444,"dy":0.0017,"dx":0.0017,"nx":28,"ny":28,"refTime":"2023-10-17T21:00:00:Z","depth":0,"parameterNumber":2,"parameterNumberName":"U-component_of_WINDS"},"data":[0,0,0,0,0,0,0,0,0,0,0,0,0,0,0,0,0,0,0,0,0,0,0,0,0,0,0,0,0,0,0,0,0,0,0,0,0,0,0,0,0,0,0,0,0,0,0,0,0,0,0,0,0,0,0,0,0,0,-2.6072,-2.6074,0,-2.6194,-2.6196,-2.6197,-2.6252,-2.6252,-2.6252,-2.6252,-2.6372,-2.6375,-2.6378,0,0,0,0,0,0,0,0,0,0,0,0,0,-2.5883,-2.5886,-2.6072,-2.6074,-2.6075,-2.6194,-2.6196,-2.6197,-2.6252,-2.6252,-2.6252,-2.6252,-2.6371,-2.6374,-2.6378,0,0,0,0,0,0,0,0,0,0,0,0,0,-2.5981,-2.5887,-2.6072,-2.6117,-2.6122,-2.6194,-2.6196,-2.6198,-2.6252,-2.6252,-2.6252,-2.6252,-2.6369,-2.6374,-2.6379,-2.6413,0,0,-2.6394,-2.6396,0,0,0,0,0,0,0,0,-2.5975,-2.5988,-2.6109,-2.6114,-2.612,-2.6208,-2.6173,-2.627,-2.6252,-2.6203,-2.6252,-2.6252,-2.6317,-2.6326,-2.6349,-2.6419,-2.6424,-2.6395,-2.6398,-2.64,-2.6401,0,0,0,0,0,0,0,-2.5968,-2.5983,-2.612,-2.6111,-2.6117,-2.613,-2.6144,-2.6192,-2.6259,-2.6207,-2.6211,-2.6225,-2.632,-2.6344,-2.6353,-2.6426,-2.6394,-2.6399,-2.6402,-2.6404,-2.6531,-2.6532,0,0,0,0,0,0,-2.5955,-2.5977,-2.6117,-2.6124,-2.6046,-2.6133,-2.6149,-2.618,-2.6259,-2.6271,-2.6225,-2.6227,-2.6336,-2.6347,-2.6357,-2.6403,-2.64,-2.6404,-2.6407,-2.6531,-2.6531,-2.6532,0,0,0,0,0,0,-2.595,-2.5967,-2.6112,-2.6052,-2.6071,-2.6137,-2.6171,-2.6182,-2.6207,-2.6273,-2.6285,-2.6238,-2.6336,-2.635,-2.64,-2.6408,-2.6407,-2.6411,-2.653,-2.6531,-2.6532,-2.6496,0,0,0,0,0,0,-2.5945,-2.5965,-2.5979,-2.6052,-2.6074,-2.6153,-2.6172,-2.6185,-2.6216,-2.622,-2.6288,-2.6299,-2.6337,-2.6392,-2.6405,-2.6415,-2.6415,-2.653,-2.6531,-2.6531,-2.6496,-2.6495,-2.6494,0,0,0,0,0,-2.5938,-2.5963,-2.598,-2.5996,-2.6094,-2.6153,-2.6166,-2.6211,-2.6216,-2.6231,-2.6274,-2.6297,-2.6405,-2.6397,-2.6411,-2.6423,-2.6529,-2.653,-2.6531,-2.6497,-2.6495,-2.6494,0,0,0,0,0,0,-2.5887,-2.5973,-2.5993,-2.6042,-2.609,-2.6163,-2.6182,-2.6208,-2.6254,-2.6255,-2.6308,-2.6323,-2.6368,-2.6401,-2.6389,-2.6462,-2.647,-2.6473,-2.6438,-2.6437,-2.6436,-2.6427,-2.6419,0,0,0,0,0,-2.5882,-2.5925,-2.5997,-2.6034,-2.6057,-2.6115,-2.6143,-2.6174,-2.6225,-2.6245,-2.6291,-2.6339,-2.6384,-2.6413,-2.6458,-2.6502,-2.6517,-2.6517,-2.6516,-2.6515,-2.6517,-2.6544,-2.6545,-2.6535,-2.6535,-2.6535,0,0,-2.5871,-2.5924,-2.5947,-2.6025,-2.6066,-2.6108,-2.6132,-2.6175,-2.6207,-2.6251,-2.6302,-2.6337,-2.6394,-2.6441,-2.6464,-2.647,-2.6524,-2.6516,-2.6514,-2.6518,-2.6545,-2.6546,-2.6547,-2.6535,-2.6535,-2.6535,0,0,-2.5873,-2.5917,-2.5953,-2.5995,-2.6057,-2.6097,-2.6105,-2.6174,-2.62,-2.6252,-2.6287,-2.6325,-2.6401,-2.6441,-2.6471,-2.649,-2.6513,-2.6503,-2.6496,-2.6522,-2.6522,-2.6523,-2.6531,-2.6533,-2.6506,-2.6506,-2.6505,0,-2.5851,-2.5918,-2.5968,-2.601,-2.6044,-2.6088,-2.6125,-2.6162,-2.6235,-2.6257,-2.6263,-2.6361,-2.6402,-2.646,-2.6465,-2.6487,-2.6499,-2.6495,-2.6519,-2.652,-2.6522,-2.6529,-2.6532,-2.6504,-2.6504,-2.6504,-2.6504,0,-2.5888,-2.5934,-2.5955,-2.6028,-2.6063,-2.6102,-2.6157,-2.6187,-2.6215,-2.6254,-2.6306,-2.6358,-2.6415,-2.6431,-2.6457,-2.6493,-2.6494,-2.6509,-2.6518,-2.652,-2.6528,-2.6531,-2.6502,-2.6502,-2.6503,-2.6503,0,0,-2.586,-2.5962,-2.5968,-2.6003,-2.6076,-2.6112,-2.6153,-2.6211,-2.6236,-2.6285,-2.632,-2.6385,-2.64,-2.6434,-2.6466,-2.6488,-2.6501,-2.65,-2.6502,-2.6498,-2.6544,-2.6532,-2.6535,-2.6517,-2.6518,-2.6519,-2.6539,0,-2.5872,-2.595,-2.5997,-2.6055,-2.6098,-2.6142,-2.6178,-2.6226,-2.6263,-2.6304,-2.6345,-2.639,-2.6406,-2.6427,-2.6451,-2.6494,-2.6511,-2.6494,-2.655,-2.6552,-2.6534,-2.6539,-2.6527,-2.6543,-2.6542,-2.6543,-2.6543,0,-2.5896,-2.5947,-2.601,-2.6081,-2.61,-2.6132,-2.619,-2.6229,-2.6285,-2.631,-2.6349,-2.6382,-2.6427,-2.6433,-2.6495,-2.6483,-2.6509,-2.6533,-2.6535,-2.6542,-2.6547,-2.6545,-2.6549,-2.6551,-2.6549,-2.6548,-2.6548,0,-2.587,-2.5954,-2.6003,-2.6031,-2.6114,-2.6135,-2.6171,-2.6227,-2.6259,-2.6309,-2.6331,-2.6384,-2.6413,-2.6454,-2.65,-2.65,-2.6558,-2.6568,-2.658,-2.6579,-2.6589,-2.6588,-2.6597,-2.6606,-2.6606,-2.6606,-2.6606,0,-2.5878,-2.5914,-2.5993,-2.6022,-2.6065,-2.6119,-2.6159,-2.6198,-2.6248,-2.6286,-2.6327,-2.6361,-2.642,-2.6462,-2.6498,-2.6544,-2.6557,-2.6578,-2.6587,-2.6575,-2.6572,-2.6592,-2.6592,-2.6607,-2.6607,-2.6607,-2.6606,0,-2.5855,-2.5909,-2.5965,-2.6041,-2.606,-2.6088,-2.6152,-2.6183,-2.6223,-2.6271,-2.6285,-2.6347,-2.6399,-2.6449,-2.6517,-2.6542,-2.6587,-2.66,-2.6569,-2.6574,-2.6583,-2.6582,-2.6606,-2.6612,-2.6616,-2.6616,-2.6616,0,-2.5856,-2.5886,-2.5966,-2.5995,-2.603,-2.6077,-2.6111,-2.6165,-2.6198,-2.6266,-2.6288,-2.6343,-2.6389,-2.6469,-2.652,-2.6572,-2.6586,-2.6591,-2.6594,-2.6581,-2.6586,-2.6584,-2.6587,-2.6589,-2.6589,-2.6589,-2.6588,0,-2.5854,-2.588,-2.5928,-2.5986,-2.6026,-2.6074,-2.6123,-2.6144,-2.6208,-2.6243,-2.6298,-2.6334,-2.6405,-2.6459,-2.6518,-2.6553,-2.6581,-2.6587,-2.6593,-2.658,-2.6561,-2.6571,-2.6565,-2.6586,-2.6586,-2.6587,-2.6587,-2.6587,-2.5843,-2.5872,-2.5934,-2.5986,-2.603,-2.6075,-2.6108,-2.6154,-2.62,-2.6264,-2.6293,-2.6347,-2.6404,-2.6486,-2.6522,-2.6564,-2.6572,-2.6579,-2.6581,-2.6583,-2.658,-2.6555,-2.6575,-2.6575,-2.6576,-2.6576,-2.6576,0,-2.5843,-2.5885,-2.5933,-2.6002,-2.6044,-2.6069,-2.6125,-2.6158,-2.6206,-2.6257,-2.6303,-2.6366,-2.6419,-2.6475,-2.6531,-2.6554,-2.6568,-2.6567,-2.6565,-2.6573,-2.657,-2.656,-2.6555,-2.6555,-2.6554,-2.6554,-2.6554,-2.6554,-2.5847,-2.5898,-2.5931,-2.6004,-2.6046,-2.6101,-2.6131,-2.6173,-2.6215,-2.6284,-2.6329,-2.6366,-2.6419,-2.648,-2.6529,-2.6544,-2.6563,-2.6558,-2.6576,-2.6572,-2.6573,-2.6575,-2.6565,-2.6561,-2.6561,-2.6576,-2.6576,-2.6576]},{"header":{"parameterUnit":"m.s-1","parameterCategory":1,"la1":30.2991,"la2":30.254,"lo1":-89.0895,"lo2":-89.0444,"dy":0.0017,"dx":0.0017,"nx":28,"ny":28,"refTime":"2023-10-17T21:00:00:Z","depth":0,"parameterNumber":3,"parameterNumberName":"V-component_of_WINDS"},"data":[0,0,0,0,0,0,0,0,0,0,0,0,0,0,0,0,0,0,0,0,0,0,0,0,0,0,0,0,0,0,0,0,0,0,0,0,0,0,0,0,0,0,0,0,0,0,0,0,0,0,0,0,0,0,0,0,0,0,0.6467,0.6467,0,0.6456,0.6456,0.6456,0.646,0.646,0.646,0.6461,0.6447,0.6446,0.6446,0,0,0,0,0,0,0,0,0,0,0,0,0,0.6488,0.6488,0.6467,0.6467,0.6466,0.6456,0.6456,0.6456,0.646,0.646,0.6461,0.6461,0.6447,0.6446,0.6445,0,0,0,0,0,0,0,0,0,0,0,0,0,0.6478,0.6488,0.6467,0.6467,0.6467,0.6456,0.6456,0.6456,0.646,0.646,0.6461,0.6461,0.6447,0.6446,0.6445,0.6432,0,0,0.6443,0.6442,0,0,0,0,0,0,0,0,0.6479,0.6477,0.6467,0.6467,0.6467,0.646,0.6458,0.6448,0.646,0.6463,0.6461,0.6461,0.6451,0.6449,0.6446,0.6431,0.6431,0.6442,0.6442,0.6442,0.6441,0,0,0,0,0,0,0,0.6479,0.6478,0.6462,0.6467,0.6467,0.6467,0.6466,0.6456,0.6454,0.6462,0.6463,0.6461,0.6451,0.6447,0.6446,0.6431,0.6443,0.6442,0.6441,0.6441,0.6405,0.6404,0,0,0,0,0,0,0.6481,0.6478,0.6463,0.6462,0.6474,0.6467,0.6466,0.6462,0.6455,0.6454,0.6461,0.6462,0.6449,0.6447,0.6446,0.643,0.6442,0.6441,0.644,0.6405,0.6405,0.6404,0,0,0,0,0,0,0.6481,0.6479,0.6463,0.647,0.6468,0.6466,0.6462,0.6461,0.6458,0.6454,0.6453,0.6458,0.6449,0.6447,0.6436,0.643,0.644,0.6439,0.6406,0.6405,0.6404,0.6399,0,0,0,0,0,0,0.6482,0.6479,0.6475,0.647,0.6468,0.6454,0.6461,0.6461,0.6457,0.6458,0.6451,0.645,0.6449,0.6437,0.6435,0.6429,0.6439,0.6406,0.6405,0.6404,0.6399,0.6398,0.6397,0,0,0,0,0,0.6482,0.6473,0.6474,0.6473,0.6462,0.6454,0.6452,0.6452,0.6456,0.6452,0.6449,0.645,0.6431,0.6436,0.6433,0.6427,0.6406,0.6405,0.6405,0.64,0.6398,0.6397,0,0,0,0,0,0,0.6475,0.6472,0.6474,0.6463,0.6459,0.6455,0.6448,0.645,0.6444,0.6445,0.6444,0.6442,0.6431,0.6428,0.6433,0.6414,0.6419,0.6418,0.6416,0.6415,0.6413,0.6414,0.6438,0,0,0,0,0,0.6473,0.6467,0.6464,0.6454,0.6452,0.6451,0.6447,0.6447,0.6443,0.6441,0.6437,0.6431,0.6424,0.6419,0.6412,0.6399,0.6397,0.6393,0.6392,0.6391,0.6389,0.6382,0.6381,0.6401,0.6401,0.6401,0,0,0.6467,0.6464,0.646,0.6453,0.645,0.6443,0.6449,0.6442,0.6437,0.6439,0.6429,0.6426,0.642,0.6408,0.6402,0.6405,0.6383,0.6389,0.6389,0.6388,0.6381,0.6379,0.6378,0.64,0.6401,0.6401,0,0,0.6453,0.645,0.6443,0.6439,0.6435,0.6434,0.6432,0.6428,0.6427,0.6416,0.6418,0.6412,0.6399,0.6395,0.6391,0.6376,0.6377,0.6374,0.6366,0.636,0.6358,0.6357,0.6352,0.635,0.6372,0.6372,0.6372,0,0.6446,0.6437,0.6438,0.6431,0.6427,0.643,0.6422,0.6419,0.6412,0.6409,0.6412,0.6397,0.6393,0.638,0.6377,0.6373,0.6371,0.6374,0.6358,0.6357,0.6356,0.6351,0.6349,0.6372,0.6372,0.6372,0.6372,0,0.6428,0.6422,0.6416,0.6411,0.6407,0.6399,0.6398,0.6394,0.6394,0.6393,0.6383,0.6378,0.637,0.6367,0.6367,0.6355,0.6356,0.6359,0.6364,0.6353,0.6349,0.6347,0.6371,0.6371,0.6372,0.6372,0,0,0.641,0.6406,0.6403,0.6401,0.6397,0.6391,0.6384,0.6377,0.6374,0.6369,0.6362,0.6351,0.6354,0.635,0.6349,0.6344,0.6333,0.6347,0.6347,0.6345,0.6318,0.6317,0.6314,0.6333,0.6333,0.6333,0.6319,0,0.6396,0.6383,0.6384,0.6372,0.6366,0.6369,0.6362,0.6359,0.6357,0.6351,0.6349,0.6342,0.6346,0.6343,0.6338,0.6335,0.6327,0.6336,0.6327,0.6326,0.6328,0.6312,0.631,0.6297,0.6317,0.6317,0.6317,0,0.6377,0.6373,0.6361,0.6358,0.6356,0.635,0.6344,0.6339,0.6334,0.6334,0.6329,0.633,0.6322,0.6327,0.6316,0.6322,0.6318,0.6316,0.6315,0.6314,0.6321,0.6311,0.6293,0.6291,0.6314,0.6314,0.6314,0,0.6365,0.6357,0.6348,0.6346,0.6342,0.6338,0.6336,0.6332,0.6329,0.6324,0.6321,0.6315,0.6311,0.6306,0.6304,0.6309,0.6293,0.6298,0.6292,0.6292,0.6288,0.6288,0.627,0.6285,0.6285,0.6285,0.6285,0,0.635,0.6342,0.6343,0.6338,0.6329,0.633,0.6321,0.632,0.6316,0.6311,0.6312,0.6307,0.6305,0.6299,0.6298,0.6289,0.6287,0.6286,0.6285,0.6286,0.6286,0.6283,0.6284,0.6285,0.6285,0.6285,0.6285,0,0.6335,0.6335,0.6326,0.6324,0.6323,0.6317,0.6314,0.6309,0.6308,0.6301,0.6299,0.6297,0.629,0.6288,0.628,0.6279,0.6268,0.6268,0.627,0.627,0.6263,0.6264,0.6242,0.624,0.6257,0.6257,0.6257,0,0.6325,0.632,0.6317,0.6314,0.6312,0.6306,0.6303,0.6303,0.63,0.6295,0.629,0.6283,0.6278,0.6267,0.6264,0.6257,0.6258,0.625,0.6256,0.6257,0.6258,0.6258,0.6258,0.6249,0.6249,0.6249,0.6249,0,0.6308,0.6308,0.6304,0.6299,0.6296,0.6292,0.6288,0.6285,0.6285,0.6281,0.6274,0.627,0.6262,0.6255,0.6249,0.6246,0.6247,0.6247,0.6245,0.6245,0.6247,0.6246,0.6267,0.6247,0.6248,0.6248,0.6248,0.6248,0.6295,0.6291,0.6288,0.6283,0.6281,0.6278,0.6273,0.6272,0.6267,0.6261,0.6261,0.6254,0.625,0.6241,0.6238,0.6232,0.6234,0.6231,0.6231,0.623,0.623,0.6248,0.6231,0.6231,0.6231,0.6231,0.6231,0,0.6278,0.6277,0.6273,0.6268,0.6264,0.6267,0.6263,0.6259,0.6253,0.625,0.6245,0.6238,0.6231,0.6228,0.6222,0.6218,0.6218,0.6216,0.6216,0.6216,0.6228,0.6231,0.6216,0.6216,0.6216,0.6216,0.6216,0.6216,0.6269,0.6262,0.6262,0.6253,0.6252,0.6246,0.6243,0.624,0.6238,0.623,0.6225,0.6223,0.622,0.6213,0.6208,0.6207,0.6204,0.6202,0.6202,0.6213,0.6215,0.6216,0.6219,0.6202,0.6202,0.619,0.619,0.619]}]]